Torna al catalogo

COSMOS 1275 DEB

AttivoPO
NORAD 19047·DEBRIS·🇷🇺 Russia

Lanciato Jun 4, 1981 da Plesetsk Cosmodrome

Loading…

Prossimi Passaggi (prossime 24 ore)

TLE

AggiornatoSource: Space-Track

Epoca: Sep 14, 2026, 07:07 UTC

1 19047U 81053MF  26257.29719447  .00002277  00000-0  98984-3 0  9992
2 19047  82.7819 205.4925 0029248   3.0803 149.5707 14.23535798117126

Traccia COSMOS 1275 DEB in tempo reale con AllMySat

Download on the App Store